This is the latest recevied weather packets stored in our database for station/object N2PPN. If no packets are shown the sender has not sent any weather packets the latest 10 day(s).
| Time | Temp. | Humidity | Pressure | Rain* | Wind** | Luminosity | Snow |
|---|---|---|---|---|---|---|---|
| 1777258901 | 6.11° C | 91% | 1025.3 hPa | 0 mm | - | 0 W/m² | - |
| 1777258598 | 6.11° C | 91% | 1025.3 hPa | 0 mm | - | 0 W/m² | - |
| 1777258294 | 6.11° C | 91% | 1025.1 hPa | 0 mm | - | 0 W/m² | - |
| 1777257991 | 6.11° C | 91% | 1025.2 hPa | 0 mm | - | 0 W/m² | - |
| 1777257688 | 6.11° C | 91% | 1025.3 hPa | 0 mm | - | 0 W/m² | - |
| 1777257386 | 6.11° C | 91% | 1025.2 hPa | 0 mm | - | 0 W/m² | - |
| 1777257083 | 6.11° C | 91% | 1025.3 hPa | 0 mm | - | 0 W/m² | - |
| 1777256780 | 5.56° C | 90% | 1025.3 hPa | 0 mm | - | 0 W/m² | - |
| 1777256475 | 6.11° C | 89% | 1025.3 hPa | 0 mm | - | 0 W/m² | - |
| 1777256171 | 6.11° C | 89% | 1025.3 hPa | 0 mm | - | 0 W/m² | - |
| 1777255868 | 6.67° C | 88% | 1025.1 hPa | 0 mm | - | 0 W/m² | - |
| 1777255564 | 6.67° C | 87% | 1025.1 hPa | 0 mm | - | 0 W/m² | - |
| 1777255260 | 6.67° C | 87% | 1025.2 hPa | 0 mm | - | 0 W/m² | - |
| 1777254955 | 6.67° C | 87% | 1025.4 hPa | 0 mm | - | 0 W/m² | - |
| 1777254653 | 6.67° C | 87% | 1025.2 hPa | 0 mm | - | 0 W/m² | - |
| 1777254350 | 6.67° C | 86% | 1025.3 hPa | 0 mm | - | 0 W/m² | - |
| 1777254045 | 7.22° C | 86% | 1024.8 hPa | 0 mm | - | 0 W/m² | - |
| 1777253743 | 7.22° C | 85% | 1025.3 hPa | 0 mm | - | 0 W/m² | - |
| 1777253440 | 7.22° C | 84% | 1025.2 hPa | 0 mm | - | 0 W/m² | - |
| 1777253137 | 7.22° C | 85% | 1025.1 hPa | 0 mm | - | 0 W/m² | - |
| 1777252835 | 7.22° C | 84% | 1025 hPa | 0 mm | - | 0 W/m² | - |
| 1777252532 | 7.22° C | 84% | 1025.4 hPa | 0 mm | - | 0 W/m² | - |
| 1777252229 | 7.78° C | 83% | 1025.5 hPa | 0 mm | - | 0 W/m² | - |
| 1777251926 | 7.22° C | 84% | 1025.2 hPa | 0 mm | - | 0 W/m² | - |
| 1777251623 | 7.78° C | 81% | 1025.1 hPa | 0 mm | - | 0 W/m² | - |
* Rain latest hour (hover to see other rain measurements)
** Current wind speed in m/s (hover to see current wind gust speed)